{"data":{"norad_id":61880,"epoch":"2026-05-24T20:05:11.642784Z","epoch_age_seconds":88820,"freshness":"FRESH","line1":"1 61880U 24204G   26144.83694031 -.00000558  00000+0  25318-6 0  9999","line2":"2 61880  53.1588 340.9426 0000977  65.1221 294.9898 15.69703474 88879","mean_motion":15.69703474,"eccentricity":9.77e-5,"inclination_deg":53.1588,"raan_deg":340.9426,"arg_perigee_deg":65.1221,"mean_anomaly_deg":294.9898,"bstar":2.5318e-7,"rev_number":8887,"period_min":91.737071609488,"perigee_km":359.0871342855,"apogee_km":360.40371651142,"semimajor_km":6737.8824253985,"source":"CELESTRAK","updated_at":"2026-05-25T13:38:19.475604Z"}}